Temp_Advection
nan nan nan nan nan nan nan nan nan nan nan nan nan nan nan nan nan nan nan nan nan nan nan nan nan nan nan nan nan nan nan nan nan nan nan nan nan nan nan nan nan nan nan nan nan nan nan nan nan
nan -0 -0 -0 -0 -0 -0 -0 -0 -0 -0 -0 -0 -0 -0 -0 -0 1 0 1 0 -0 -0 0 0 0 0 -0 -0 0 -0 -0 -0 -0 0 -0 0 0 0 0 -0 -0 -0 0 0 -0 -0 -0 nan
nan -0 -0 -0 -0 -0 0 -0 -0 -0 0 0 -0 -1 -0 -0 -0 -0 0 0 0 0 -0 0 0 0 0 -0 -0 0 0 -0 -0 -0 -0 -0 0 0 -0 -0 -0 -0 -0 -0 -0 0 -0 -0 nan
nan -0 -0 -0 -0 -0 -0 -0 -0 -0 -0 0 -1 -1 -0 0 -0 -0 0 -0 -0 0 -0 0 0 -0 0 -0 -0 -0 0 -0 -0 0 0 -0 -0 -0 -0 -0 -0 -0 -0 -0 -0 -0 -0 -0 nan
nan -0 -0 -0 -0 -0 -0 0 -0 0 0 0 -0 -0 -0 0 -0 0 0 0 -0 -0 -0 0 0 -0 0 -0 -0 -0 -0 -0 -0 0 0 0 0 0 -0 -0 -0 -0 -0 -0 -0 -0 -0 -0 nan
nan -0 -0 0 -0 0 0 -0 -0 0 -0 -0 -0 -1 0 0 -0 0 -0 0 0 -0 0 0 0 0 0 -0 -0 -0 -0 -0 -0 -0 -0 0 -0 -0 0 0 -0 -0 -0 -0 -0 -0 -0 -0 nan
nan -0 -0 -0 -0 -0 -0 -0 -0 0 -0 -0 -2 -0 0 1 0 0 0 0 0 0 0 0 0 0 -0 -0 -0 -0 -0 -0 -0 0 -0 -0 -0 -0 0 0 -0 -0 -0 -0 -0 -0 -0 -0 nan
nan -0 -0 -0 0 -0 -0 -0 -0 0 0 -0 -1 -1 -1 -0 1 0 1 1 0 0 0 -0 -0 -0 -0 -0 -0 -0 -0 -0 -0 -0 -0 -0 -0 -0 0 0 0 -0 -0 -0 -0 -0 -0 -0 nan
nan 0 -0 -0 -0 0 -0 -0 -0 -0 -0 0 0 -1 -2 -2 0 0 0 0 0 0 0 -0 -0 -0 -0 -0 -0 -0 -0 -0 -0 -0 -0 -0 -0 -0 -0 0 0 -0 -0 -0 -0 -0 -0 -0 nan
nan -0 -0 -0 -0 -0 0 -0 -1 -0 0 -0 0 -0 -0 -0 0 0 -0 -0 -0 -0 0 0 -0 -0 -0 -0 -0 -0 -0 -0 -0 0 0 -0 -0 -0 -0 -0 0 0 -0 -0 -0 -0 -0 -0 nan
nan -0 -0 -0 -0 0 -0 -0 -1 -1 0 -0 -1 -0 -1 0 -0 -0 -0 -1 -0 -0 -0 -0 -0 -0 -0 -0 -0 -0 -0 -0 -0 0 0 0 -0 -0 -0 -0 -0 0 0 -0 -0 0 -0 -0 nan
nan -1 -1 0 -0 -0 -0 -0 -0 -0 -0 -0 -1 -0 -1 -1 -1 -0 -1 -0 -0 -0 -0 -0 -0 -0 -0 -0 0 -0 -0 -0 -0 -0 -0 0 0 0 -0 -0 -0 -0 0 -0 -0 -0 0 -0 nan
nan -0 -0 -0 -1 -1 -0 -0 -0 1 0 1 0 1 -0 -1 -1 0 -0 -0 -0 -0 -0 -0 -0 -0 -0 -0 -0 -0 -0 -0 -0 -0 -0 -0 0 0 -0 -0 -0 -0 -0 -0 0 0 0 0 nan
nan -0 -1 -1 -1 -0 -0 -0 -1 -0 0 0 -0 -0 -0 -0 -0 -0 -0 -1 -1 -0 -0 -0 -0 -0 -0 -0 -0 -0 -0 -0 -0 -0 -0 -0 -0 -0 -0 -0 -0 -0 -0 -0 -0 0 0 0 nan
nan -0 -1 -0 -1 -0 -0 -0 0 -0 0 -0 -0 -0 -0 -0 0 -1 -0 -0 -1 -0 -0 -0 -0 -0 -0 0 0 0 0 -0 -0 -0 -0 -0 -0 -0 -0 -0 -0 -0 -0 -0 -0 -0 0 0 nan
nan 0 -0 -1 -0 -0 -0 0 -0 -0 -0 -0 -0 -1 -0 -0 -0 -1 -0 -0 -0 -0 -0 0 -0 -0 -0 0 0 0 -0 -0 -0 -0 -0 -0 -0 -0 -0 -0 -0 0 0 0 -0 -0 -0 -0 nan
nan 0 -0 -1 -0 0 0 -0 -0 -0 -0 -0 -0 -1 -0 -0 -1 -1 -1 -0 -0 -0 -0 0 -0 0 0 0 -0 0 0 -0 -0 -0 -0 -0 -0 -0 -0 -0 -0 -0 0 0 0 0 -0 -0 nan
nan -0 -0 -0 -0 0 0 -0 -0 -0 -0 -0 -0 -0 -0 -0 -1 -1 -1 -0 -0 -0 -0 -0 0 0 0 0 0 0 -0 0 -0 -0 0 -0 -0 -0 -0 -0 -0 -0 -0 -0 0 0 0 -0 nan
nan -0 0 -0 -0 0 0 -0 -1 -0 -0 -0 -0 -0 -0 -0 -1 -1 -1 -0 -0 -0 -0 -0 0 0 0 0 -0 -0 -0 -0 -0 -0 -0 0 0 -0 0 0 -0 0 -0 -0 0 0 0 0 nan
nan -0 -0 -1 -0 0 0 1 -0 -0 -1 -1 -1 -0 -0 -0 -0 0 -0 -0 0 -0 -0 0 -0 0 0 -0 -0 -0 -0 -0 -0 0 0 0 0 0 0 0 0 0 -0 0 0 -0 0 0 nan
nan -0 -0 -0 0 0 -0 0 0 0 -0 -0 -0 -0 -0 -0 -0 -0 0 -0 -0 -1 -0 -0 0 0 -0 -0 0 0 -0 -0 -0 -0 0 -0 -0 -0 0 0 0 -0 -0 0 0 -0 0 0 nan
nan -1 -0 -0 -0 0 0 0 1 -0 0 -0 -1 -1 -1 -0 -0 -0 -1 -2 -2 -0 -1 -0 -0 -0 -0 -0 -0 -0 -0 -0 -0 -0 0 0 0 -0 0 0 0 0 -0 0 0 -0 -0 -0 nan
nan -0 0 0 0 -0 0 -0 -0 -0 -0 -1 -1 -1 -1 -1 -1 -1 -2 -1 -1 -0 -1 -0 -1 -0 -0 -0 0 -0 -0 -1 -0 -0 0 0 0 -0 0 0 0 0 0 0 0 -0 -0 -0 nan
nan 0 0 -0 0 -1 -0 -0 -0 -0 -1 -1 -0 -1 -1 -1 -1 -2 -1 1 -0 -0 -1 -1 -0 -1 -0 0 -0 -0 -1 -0 -0 -0 0 0 0 -0 -0 0 0 -0 0 0 0 -0 0 0 nan
nan -0 0 0 0 -1 0 0 -1 -1 -2 -1 -1 -1 -1 -1 -1 -1 0 -1 -1 -1 -1 -1 -0 -1 -0 0 -0 -0 -0 -0 -0 0 0 0 0 -0 -0 0 0 -0 -0 0 0 -0 0 -0 nan
nan 0 -0 -0 0 -0 0 -0 -0 -0 -1 0 -1 -1 -1 -0 0 -0 -1 -2 0 -1 -0 -1 -1 -1 -0 -0 -0 -0 0 0 0 0 0 0 0 -0 -0 0 0 -0 -0 0 0 -0 -0 -0 nan
nan -0 -1 -0 0 0 -0 -0 -0 0 0 0 0 -0 0 0 0 -1 -1 0 -0 -1 -2 -1 -0 -1 -1 -0 0 0 -0 -0 -0 0 0 0 0 0 -0 0 -0 0 0 0 -0 -0 -0 -0 nan
nan -0 0 -0 -0 -0 -0 -0 0 0 0 -0 -0 -1 0 0 -0 -1 -0 -0 -1 -1 -0 0 -0 -0 1 0 0 -0 -0 -0 0 0 0 0 0 0 -0 -0 -0 -0 0 0 -0 -0 -0 -0 nan
nan 0 0 -1 0 0 -0 -0 -0 -0 -0 0 -1 -2 -1 -0 -1 -1 -1 -0 -1 0 1 0 1 1 1 -0 -0 -0 -0 0 0 0 -0 0 0 0 -0 -0 -0 -0 -0 -0 -0 -0 0 -0 nan
nan nan nan nan nan nan nan nan nan nan nan nan nan nan nan nan nan nan nan nan nan nan nan nan nan nan nan nan nan nan nan nan nan nan nan nan nan nan nan nan nan nan nan nan nan nan nan nan nan
Wind_Speed
12 14 13 6 2 2 3 3 2 7 4 12 32 6 7 5 2 3 28 33 31 32 28 24 25 24 23 22 22 21 20 21 21 20 20 18 19 18 17 17 17 16 15 15 14 14 15 14 15
14 16 8 3 2 2 3 1 6 9 4 12 20 13 5 3 5 17 36 33 32 33 29 26 25 24 22 21 21 20 19 21 20 18 19 18 18 17 17 17 16 15 13 13 13 14 16 16 17
13 9 1 1 2 2 2 3 6 3 1 13 7 12 5 5 12 39 36 35 35 33 28 27 26 23 22 20 20 19 18 20 20 18 18 18 17 18 18 17 16 14 13 13 13 13 15 15 17
11 4 2 2 3 4 4 6 14 11 7 7 15 8 6 4 33 31 40 36 35 32 28 27 25 23 21 19 18 17 19 19 18 17 19 19 20 20 20 19 18 16 15 14 14 13 15 15 14
7 2 2 1 3 3 1 11 12 8 10 12 6 5 9 21 22 41 38 37 35 32 28 26 24 22 20 18 17 17 18 18 17 17 19 22 22 21 21 19 18 17 16 14 13 13 16 15 15
3 1 1 1 3 6 3 4 5 5 7 10 12 13 7 12 32 40 38 35 32 31 28 26 23 21 19 18 17 16 17 17 17 19 20 20 21 20 19 17 17 17 15 13 13 14 15 14 14
4 2 3 1 5 2 5 9 9 5 8 6 21 5 12 22 41 37 37 34 31 29 27 25 23 21 19 17 16 16 16 17 17 18 20 20 19 19 16 17 18 18 16 13 13 13 14 14 12
4 1 3 2 3 4 1 4 5 8 2 16 14 7 13 37 42 38 35 32 29 27 26 25 23 21 19 17 17 17 16 16 17 17 18 19 19 17 15 15 17 17 16 15 12 12 13 13 12
4 2 3 5 6 2 6 4 5 1 10 5 6 18 36 50 42 38 35 30 27 25 25 24 22 20 18 16 16 17 16 15 15 15 16 17 17 16 16 15 14 14 12 11 10 12 12 11 11
3 2 5 6 8 1 2 10 14 7 15 5 14 26 48 49 43 40 37 34 30 27 26 23 22 20 18 16 17 16 15 15 15 15 14 15 15 14 14 14 13 11 10 11 9 7 9 9 8
7 4 3 3 11 1 6 15 15 15 3 9 34 47 54 49 43 40 36 34 32 29 26 24 22 20 18 17 18 16 14 14 13 12 13 12 13 13 12 12 12 10 9 11 8 10 7 9 9
3 11 14 3 11 7 8 12 7 17 7 22 37 60 58 50 45 40 37 34 32 30 26 25 22 20 19 18 17 16 17 16 14 13 14 9 10 11 12 12 10 9 9 8 7 10 11 8 9
12 11 12 24 26 19 10 15 7 19 5 26 39 45 50 48 43 39 36 32 31 29 28 26 24 21 20 19 18 17 16 15 14 12 10 10 8 8 8 8 9 9 7 6 7 7 7 7 6
8 19 22 23 20 11 10 6 13 10 26 35 38 42 42 46 45 39 38 36 33 28 28 27 25 22 22 22 20 18 16 13 11 10 10 9 9 8 9 8 7 7 8 6 6 6 6 11 10
18 9 10 16 15 2 14 3 4 26 31 36 35 35 36 37 41 41 41 38 35 29 27 28 26 23 23 23 21 18 14 12 10 11 11 10 7 6 6 9 9 10 9 8 8 9 12 13 12
5 5 3 9 7 9 10 3 13 28 33 32 33 34 37 37 39 39 40 37 34 30 29 29 28 26 27 25 23 18 13 11 13 13 11 9 4 3 7 8 8 9 9 11 11 13 11 10 7
3 4 7 8 11 4 8 4 16 30 30 30 33 35 35 35 39 42 41 36 34 33 31 31 31 29 30 25 24 18 14 13 13 13 13 9 2 4 6 5 7 8 7 9 7 10 11 10 5
6 4 4 6 4 11 11 6 18 28 30 32 31 35 37 38 45 45 45 38 35 34 31 32 33 30 30 28 25 20 17 15 14 13 13 10 3 3 4 4 7 8 6 6 6 6 4 8 7
4 4 6 6 6 8 15 9 20 30 25 26 31 32 36 38 42 46 47 44 38 36 36 34 35 33 31 31 30 27 24 21 16 14 13 13 8 3 5 5 8 8 6 5 7 7 7 8 8
8 5 6 10 5 6 7 17 18 21 31 39 40 38 38 35 37 45 49 47 46 41 40 40 38 36 36 34 31 30 27 26 22 17 14 14 12 8 6 7 8 8 10 7 8 8 11 9 8
13 13 9 9 5 3 4 7 14 20 10 21 27 34 36 42 43 45 50 50 48 48 45 46 40 41 40 37 35 32 30 28 29 25 21 15 15 13 10 8 11 10 11 9 6 10 11 10 10
12 12 14 14 3 4 5 4 11 16 22 21 30 35 38 40 40 44 47 53 54 53 48 47 46 42 44 43 38 34 33 35 33 32 26 20 17 15 14 11 11 13 12 10 8 9 11 10 14
14 6 9 8 3 3 9 3 7 15 19 22 27 38 41 44 45 47 52 52 51 53 52 51 48 46 44 47 42 36 33 35 37 35 30 27 21 18 16 14 10 13 14 11 9 9 13 12 15
4 4 3 1 3 10 17 8 5 13 25 22 27 39 42 43 46 48 55 51 49 51 55 54 53 50 46 49 46 39 34 30 33 33 33 30 27 24 20 16 13 14 15 13 12 10 15 12 15
11 7 4 4 5 13 7 7 13 22 25 28 28 44 44 43 42 43 50 49 54 54 53 56 56 54 50 49 49 43 38 32 30 31 31 31 27 25 23 18 16 15 16 14 13 13 12 16 14
12 15 6 8 4 8 6 8 6 14 24 40 39 48 41 41 45 46 43 52 54 56 57 56 57 56 54 52 51 47 41 35 31 31 32 31 30 26 20 19 18 16 16 15 15 15 14 14 15
8 19 12 5 3 2 4 5 6 7 13 19 30 35 34 35 40 41 45 49 52 56 58 58 59 57 56 54 52 50 45 39 34 33 31 32 29 26 23 20 20 18 17 17 17 17 17 16 17
15 8 7 4 10 5 4 5 7 12 12 14 19 29 36 41 43 46 42 46 53 56 55 57 57 55 55 57 54 52 47 41 35 35 35 33 31 29 26 24 22 21 19 19 19 19 18 19 17
8 11 4 6 5 13 1 8 8 9 14 19 19 36 38 42 48 54 50 50 54 52 55 57 58 56 57 55 54 52 49 43 38 36 36 34 33 32 29 28 25 23 21 20 21 20 19 21 21
9 11 8 10 13 1 3 16 5 11 13 15 22 36 40 45 50 51 54 52 54 49 50 57 57 58 57 54 52 52 48 45 42 37 35 34 34 33 33 29 27 25 24 24 24 24 24 23 23
Wind_Direction
150 153 151 152 222 227 249 241 238 145 200 201 161 181 153 52 131 179 148 155 155 149 147 144 138 134 131 128 121 120 120 120 119 120 123 121 123 128 131 129 127 123 113 108 100 101 106 114 113
152 151 164 177 211 225 245 243 241 167 158 127 145 115 68 90 118 144 148 156 155 151 149 144 140 136 133 127 121 118 115 117 116 117 120 122 124 125 123 126 122 117 114 109 104 99 112 116 120
156 163 184 152 257 225 307 289 278 221 150 153 123 89 94 114 140 145 150 155 155 152 150 144 142 139 134 127 124 122 121 120 120 116 116 118 116 117 116 117 117 115 110 106 108 113 121 115 117
163 199 218 224 278 268 150 253 235 223 180 144 117 72 77 176 147 153 151 156 153 151 150 146 145 142 136 130 127 126 124 124 117 117 116 115 114 112 111 109 110 109 109 103 103 119 125 126 124
176 227 225 214 268 265 23 324 331 168 156 134 113 91 101 131 156 152 153 155 154 153 152 149 146 144 138 132 131 130 127 128 124 120 115 116 115 111 107 108 108 103 101 97 98 118 130 122 116
142 255 238 104 294 302 4 351 310 227 134 121 105 109 129 159 158 153 155 156 156 155 154 150 148 146 141 135 133 133 129 129 125 123 121 117 113 110 110 109 103 100 101 98 97 113 128 125 114
173 188 188 190 287 348 136 150 216 211 162 127 136 98 132 153 158 154 155 156 157 158 156 153 154 151 147 139 135 134 132 131 130 128 128 124 117 112 112 108 102 97 96 95 89 104 128 132 123
209 128 194 209 342 309 83 149 196 149 171 142 161 156 161 160 158 157 155 157 157 162 160 158 159 155 151 144 140 139 138 135 135 135 136 131 126 121 114 110 107 98 94 90 90 92 125 134 127
191 217 211 163 166 21 100 165 206 168 154 179 174 159 159 157 157 158 158 161 164 165 167 164 163 157 154 149 143 144 141 137 137 138 137 138 132 128 122 115 115 110 102 92 91 98 105 127 130
186 202 228 179 146 26 184 166 165 162 176 74 110 145 153 157 160 161 166 168 172 173 174 171 168 162 159 152 147 147 143 141 137 136 139 142 140 136 130 125 119 117 111 104 99 104 109 125 124
193 225 206 210 141 32 237 173 180 155 211 192 148 153 157 161 164 166 170 173 175 177 176 176 173 168 162 153 150 151 148 150 155 159 144 143 146 144 141 131 122 117 114 121 109 104 123 147 142
239 250 252 160 213 228 255 172 157 164 213 195 169 160 161 165 168 172 174 177 177 181 180 179 178 173 166 159 155 148 137 136 141 136 139 138 148 147 149 140 127 119 118 114 114 126 108 118 155
238 261 265 253 255 252 255 181 179 202 171 165 156 160 164 168 172 178 180 179 179 184 184 185 182 179 172 165 161 158 148 141 136 131 140 156 160 159 148 137 140 135 141 123 122 136 126 116 140
203 230 255 265 256 244 180 159 137 155 152 151 160 166 170 173 176 178 185 183 186 184 187 189 188 184 179 170 164 161 155 149 141 138 128 153 149 159 137 131 126 131 145 132 144 149 147 131 127
262 293 294 274 224 239 139 143 159 155 157 156 165 170 175 178 180 186 191 188 187 187 187 194 193 187 183 174 174 174 171 172 163 141 143 157 160 171 152 138 103 128 127 134 120 127 138 132 127
181 165 254 275 220 189 167 228 136 156 157 166 172 175 178 183 185 190 196 195 193 189 190 196 196 190 181 179 179 184 191 207 185 174 163 169 173 177 174 149 144 133 143 137 141 140 140 140 115
297 191 203 285 225 182 178 117 165 167 165 174 181 180 183 190 190 193 197 200 195 195 194 199 198 195 189 188 186 193 200 198 185 181 185 181 184 187 176 152 147 155 144 154 142 146 151 147 166
190 183 206 228 244 192 201 177 168 180 177 181 187 187 189 194 197 194 195 202 204 202 202 199 198 196 194 192 193 199 203 204 197 190 197 194 189 194 184 209 179 165 159 170 154 163 201 166 154
179 186 194 237 228 187 219 172 183 183 190 191 190 196 195 199 203 200 199 201 208 209 208 203 202 200 198 199 199 203 207 210 212 199 196 205 201 185 214 225 188 188 184 185 187 182 182 179 174
246 251 247 288 216 181 232 217 195 181 196 194 190 196 200 200 203 205 203 203 207 212 214 212 211 213 207 207 207 209 209 216 218 216 209 205 217 213 234 238 219 202 208 225 213 213 195 186 191
219 219 229 235 47 221 114 246 197 202 198 204 203 205 205 200 202 203 205 207 205 210 215 217 215 219 216 214 215 215 215 218 219 218 217 208 213 223 232 247 232 229 220 222 223 207 201 205 202
214 206 223 252 115 222 161 239 207 206 204 198 204 204 210 208 210 209 205 205 206 214 214 217 221 225 222 218 219 220 221 219 220 222 224 222 219 223 228 242 234 227 218 221 218 215 210 212 195
227 163 202 233 196 279 250 133 265 209 210 208 207 209 211 208 210 210 209 206 208 211 214 217 221 225 224 221 221 221 225 225 225 224 225 227 226 228 231 234 239 235 232 222 220 228 208 202 197
161 194 185 74 151 248 248 166 244 190 217 212 211 215 214 207 208 214 216 210 208 211 215 217 220 223 224 222 221 222 225 229 227 228 226 225 227 230 230 231 239 239 237 233 226 221 211 208 214
198 129 231 237 201 237 223 196 216 202 215 210 210 213 218 210 207 207 216 211 212 210 215 217 218 221 223 223 222 224 227 231 233 226 219 216 217 221 226 226 230 236 237 233 226 225 224 216 221
205 203 168 188 178 221 182 209 236 199 215 217 219 217 213 204 208 208 210 217 215 213 215 218 219 220 223 223 223 226 229 232 234 231 224 220 222 224 224 224 228 235 237 234 229 227 230 227 230
200 209 199 95 4 154 223 240 290 194 224 218 218 217 212 213 212 211 210 214 212 215 216 221 222 222 223 224 225 226 229 232 234 233 229 225 224 226 225 227 231 234 237 238 234 233 229 236 236
206 168 192 206 206 235 279 224 224 175 200 211 220 221 216 211 211 215 214 213 213 220 220 222 223 223 224 225 225 226 229 232 235 234 231 227 227 226 228 229 231 236 239 241 235 235 230 235 240
207 202 203 157 178 222 270 250 201 205 189 191 207 223 215 207 208 213 213 211 212 218 220 223 223 224 224 225 225 227 230 231 234 235 232 230 229 229 231 230 232 237 234 231 233 235 236 237 239
289 197 165 204 215 272 190 251 253 214 201 177 203 216 222 211 211 209 208 205 207 210 217 222 223 223 223 226 226 229 231 233 233 236 236 233 231 229 229 230 229 230 229 232 234 239 242 242 244
Height
1503 1505 1507 1509 1513 1512 1508 1502 1491 1495 1498 1495 1498 1501 1506 1511 1513 1525 1521 1527 1532 1535 1539 1543 1545 1547 1550 1551 1552 1553 1554 1554 1556 1557 1557 1558 1558 1559 1560 1561 1562 1563 1564 1564 1564 1564 1564 1565 1565
1503 1505 1507 1505 1510 1513 1505 1496 1492 1490 1492 1495 1501 1504 1507 1514 1514 1516 1522 1529 1534 1537 1541 1544 1547 1549 1551 1553 1554 1555 1556 1556 1557 1558 1558 1559 1559 1561 1562 1563 1564 1565 1565 1566 1566 1567 1567 1567 1568
1504 1506 1506 1506 1508 1508 1504 1496 1492 1493 1493 1495 1500 1503 1508 1514 1514 1518 1523 1529 1534 1539 1543 1546 1548 1551 1553 1554 1556 1557 1558 1559 1559 1560 1560 1560 1562 1563 1564 1565 1566 1567 1567 1568 1568 1569 1569 1570 1571
1503 1506 1506 1506 1505 1496 1498 1490 1495 1492 1495 1495 1498 1506 1511 1513 1516 1518 1524 1530 1536 1541 1545 1547 1550 1553 1555 1556 1558 1559 1560 1560 1562 1563 1563 1564 1565 1565 1567 1568 1568 1569 1570 1570 1571 1571 1571 1572 1572
1504 1503 1504 1506 1501 1492 1494 1498 1496 1492 1491 1494 1497 1510 1514 1517 1519 1521 1526 1532 1537 1541 1545 1548 1551 1554 1556 1558 1559 1561 1562 1563 1564 1566 1566 1567 1567 1568 1569 1570 1570 1571 1572 1573 1572 1572 1573 1574 1574
1503 1503 1507 1509 1498 1488 1492 1494 1496 1495 1496 1498 1501 1509 1517 1520 1522 1524 1529 1535 1540 1542 1546 1549 1553 1555 1558 1560 1561 1562 1564 1565 1567 1567 1569 1570 1571 1571 1572 1572 1573 1574 1575 1575 1575 1574 1575 1576 1577
1503 1503 1503 1500 1496 1492 1495 1495 1495 1497 1498 1499 1501 1509 1517 1520 1525 1527 1532 1537 1541 1545 1547 1551 1553 1556 1559 1561 1563 1564 1566 1567 1568 1569 1571 1572 1573 1574 1575 1575 1575 1576 1576 1577 1577 1577 1578 1579 1579
1500 1501 1504 1497 1500 1496 1489 1492 1496 1494 1498 1501 1502 1506 1513 1516 1523 1529 1534 1539 1543 1546 1548 1551 1554 1557 1560 1562 1564 1566 1568 1569 1570 1571 1573 1574 1575 1575 1577 1577 1577 1578 1579 1579 1580 1580 1580 1581 1581
1499 1503 1502 1497 1498 1493 1490 1491 1490 1494 1499 1501 1501 1499 1505 1514 1523 1529 1534 1540 1544 1547 1550 1552 1555 1558 1561 1563 1565 1568 1569 1571 1572 1573 1575 1576 1577 1578 1578 1579 1580 1581 1581 1582 1583 1583 1583 1584 1584
1497 1501 1491 1486 1487 1489 1487 1489 1492 1497 1499 1500 1500 1504 1510 1516 1522 1526 1531 1536 1542 1546 1550 1553 1556 1559 1562 1564 1566 1569 1571 1573 1575 1576 1577 1578 1579 1580 1580 1580 1581 1582 1583 1584 1585 1585 1586 1586 1586
1492 1492 1485 1484 1485 1483 1486 1487 1490 1494 1498 1495 1493 1500 1510 1516 1523 1527 1531 1535 1539 1545 1550 1553 1556 1560 1563 1565 1567 1570 1572 1574 1575 1577 1578 1580 1581 1582 1582 1582 1583 1584 1585 1586 1586 1587 1588 1589 1588
1492 1482 1483 1484 1485 1485 1485 1485 1488 1489 1489 1491 1495 1493 1503 1513 1519 1525 1530 1535 1539 1544 1549 1553 1556 1560 1563 1566 1568 1571 1573 1575 1577 1578 1579 1581 1582 1583 1584 1584 1584 1585 1585 1586 1587 1588 1590 1590 1590
1487 1482 1480 1480 1483 1485 1483 1483 1485 1488 1489 1491 1500 1504 1506 1513 1519 1525 1530 1536 1539 1543 1548 1552 1556 1560 1564 1566 1569 1572 1574 1576 1578 1579 1580 1581 1583 1584 1585 1585 1585 1585 1586 1588 1588 1589 1590 1591 1591
1480 1481 1478 1477 1477 1477 1479 1482 1483 1491 1491 1495 1501 1505 1509 1512 1516 1523 1528 1532 1537 1542 1547 1551 1556 1560 1564 1567 1569 1572 1575 1577 1579 1580 1581 1582 1584 1585 1585 1586 1586 1586 1586 1588 1589 1590 1590 1592 1592
1479 1482 1477 1471 1474 1474 1475 1483 1483 1487 1495 1496 1503 1508 1512 1515 1518 1520 1524 1528 1534 1540 1546 1550 1555 1560 1563 1566 1569 1572 1575 1577 1578 1580 1582 1583 1584 1586 1586 1587 1587 1587 1587 1588 1590 1591 1591 1593 1592
1477 1483 1493 1465 1468 1473 1474 1490 1486 1489 1492 1498 1502 1505 1509 1512 1517 1522 1526 1529 1533 1538 1543 1548 1553 1558 1562 1566 1569 1572 1574 1576 1578 1580 1582 1583 1584 1585 1587 1587 1588 1588 1588 1589 1591 1592 1593 1593 1594
1481 1492 1485 1474 1465 1470 1473 1486 1488 1489 1490 1497 1501 1502 1507 1512 1514 1518 1523 1528 1532 1536 1541 1546 1550 1555 1560 1565 1568 1571 1573 1575 1578 1579 1581 1583 1584 1585 1587 1587 1588 1589 1589 1590 1591 1592 1593 1595 1595
1490 1485 1479 1478 1463 1469 1477 1476 1482 1488 1488 1491 1498 1499 1501 1505 1507 1513 1519 1525 1531 1535 1539 1544 1549 1553 1558 1563 1567 1570 1572 1574 1577 1578 1580 1582 1584 1585 1587 1588 1589 1590 1591 1591 1592 1594 1594 1595 1596
1470 1472 1474 1466 1462 1467 1470 1473 1476 1480 1490 1493 1494 1499 1499 1501 1508 1513 1517 1521 1527 1533 1537 1541 1546 1551 1555 1559 1563 1566 1569 1573 1575 1577 1579 1581 1583 1584 1586 1588 1589 1590 1591 1591 1592 1594 1594 1595 1597
1471 1475 1476 1465 1462 1467 1468 1467 1467 1475 1474 1475 1479 1488 1492 1500 1503 1508 1512 1517 1520 1527 1533 1537 1542 1547 1552 1556 1560 1564 1568 1571 1574 1576 1578 1580 1582 1584 1586 1588 1589 1590 1591 1591 1591 1593 1594 1595 1596
1469 1474 1473 1471 1463 1460 1467 1471 1469 1470 1477 1486 1485 1488 1490 1489 1494 1500 1504 1509 1516 1519 1526 1532 1537 1542 1548 1553 1557 1561 1566 1569 1571 1573 1576 1578 1581 1583 1585 1586 1588 1589 1589 1590 1591 1592 1593 1595 1596
1477 1457 1462 1464 1472 1487 1460 1492 1475 1471 1473 1476 1478 1482 1484 1488 1493 1497 1500 1502 1508 1512 1520 1527 1533 1538 1543 1549 1553 1557 1560 1563 1567 1570 1574 1577 1579 1581 1583 1585 1586 1587 1589 1589 1591 1592 1594 1595 1596
1452 1452 1459 1462 1469 1474 1468 1490 1477 1466 1472 1467 1467 1471 1475 1479 1484 1489 1491 1494 1499 1509 1514 1521 1528 1533 1538 1543 1548 1553 1557 1560 1564 1568 1572 1574 1577 1579 1581 1583 1585 1586 1587 1589 1590 1592 1594 1595 1597
1444 1453 1459 1463 1475 1484 1459 1475 1476 1465 1454 1459 1462 1462 1464 1470 1477 1482 1487 1495 1497 1503 1508 1515 1521 1527 1533 1538 1544 1548 1552 1556 1560 1564 1567 1571 1573 1576 1577 1580 1582 1584 1586 1588 1589 1591 1593 1595 1596
1445 1463 1491 1495 1493 1471 1453 1469 1453 1442 1437 1442 1449 1450 1453 1460 1468 1475 1479 1486 1490 1495 1499 1506 1513 1519 1526 1532 1538 1543 1547 1552 1556 1560 1563 1567 1569 1571 1574 1577 1580 1582 1584 1586 1588 1589 1591 1593 1594
1441 1449 1479 1494 1487 1467 1453 1463 1447 1428 1428 1431 1436 1439 1447 1450 1457 1464 1470 1477 1482 1488 1491 1498 1505 1512 1518 1525 1531 1537 1542 1547 1551 1555 1559 1563 1565 1568 1572 1575 1578 1580 1582 1584 1586 1588 1590 1591 1592
1435 1441 1440 1463 1467 1470 1445 1440 1428 1423 1424 1424 1429 1434 1445 1450 1454 1456 1465 1467 1474 1480 1484 1487 1496 1504 1510 1517 1524 1531 1536 1541 1545 1549 1554 1558 1562 1565 1569 1572 1575 1578 1580 1582 1583 1585 1587 1588 1590
1416 1426 1450 1459 1472 1477 1457 1442 1433 1427 1426 1423 1424 1426 1433 1439 1444 1450 1457 1464 1466 1469 1476 1483 1489 1495 1502 1510 1517 1524 1530 1535 1540 1544 1548 1553 1557 1561 1564 1568 1571 1574 1577 1579 1580 1582 1584 1585 1587
1420 1420 1424 1435 1452 1450 1467 1437 1410 1413 1411 1416 1416 1414 1419 1426 1431 1438 1446 1453 1459 1464 1469 1475 1482 1489 1496 1503 1511 1517 1523 1529 1534 1538 1543 1548 1552 1557 1560 1564 1568 1570 1572 1574 1576 1578 1580 1582 1584
1424 1413 1424 1427 1446 1451 1447 1422 1394 1396 1397 1406 1407 1407 1408 1414 1416 1426 1434 1443 1452 1457 1463 1467 1474 1482 1489 1496 1504 1510 1516 1522 1527 1531 1537 1543 1547 1551 1555 1560 1563 1566 1568 1570 1572 1574 1576 1578 1580